AU-0040 weather

Kilcoy Airfield
Kilcoy, Queensland, Australia

Public forecast

Using degrees Celsius for public forecast. Weather courtesy of forecast.io.

METAR (pilot weather report)

Closest report is Brisbane International Airport, 38.3 nm (71.0 km) SE. Retrieved 2019/04/19 04:00 UTC (5 minutes ago):

YBBN 190400Z 13009KT 9999 VCSH SCT028 25/19 Q1020 INTER 0400/0700 3000 SHRA BKN012

TAF (pilot weather forecast)

Forecast is more than 12 hours old.

Closest forecast is Brisbane International Airport, 38.3 nm (71.0 km) SE. Retrieved 2019/04/18 00:00 UTC (1 day ago):

TAF YBBN 182306Z 1900/2006 13014KT 9999 -SHRA SCT025 BKN040 FM191200 17009KT 9999 -SHRA FEW015 BKN025 OVC040 FM200000 12014KT 9999 -SHRA SCT025 BKN040 INTER 1900/2006 3000 SHRA BKN012